Location: Newark
(7.0858°N, 171.3717°E)
Time: 13:43:38
(UTC+00:00)

N. Korean satellite - Pass Details

Date: 01 October 2021
Orbit: 450 x 495 km, 97.3° (Epoch: 23 October)

Event Time Altitude Azimuth Distance (km) Brightness Sun altitude
Rises 16:35:05 0° 47° (NE) 2,561 10.9 -27.4°
Maximum altitude 16:39:33 10° 100° (E) 1,678 10.3 -26.3°
Drops below altitude 10° 16:39:57 10° 106° (ESE) 1,687 10.2 -26.2°
Sets 16:44:01 0° 152° (SSE) 2,572 10.6 -25.2°
